TimeCDT,TemperatureF,Dew PointF,Humidity,Sea Level PressureIn,VisibilityMPH,Wind Direction,Wind SpeedMPH,Gust SpeedMPH,PrecipitationIn,Events,Conditions,WindDirDegrees,DateUTC
12:53 AM,10.9,5.0,77,30.40,10.0,NW,4.6,-,N/A,,Clear,310,2013-03-26 05:53:00
1:53 AM,10.4,3.2,73,30.35,10.0,WNW,4.6,-,N/A,,Clear,300,2013-03-26 06:53:00
2:53 AM,7.0,1.0,77,30.40,10.0,NW,4.6,-,N/A,,Clear,310,2013-03-26 07:53:00
3:53 AM,5.0,-0.0,80,30.40,10.0,Calm,Calm,-,N/A,,Clear,0,2013-03-26 08:53:00
4:53 AM,3.9,-0.9,80,30.39,10.0,NNW,4.6,-,N/A,,Clear,330,2013-03-26 09:53:00
5:53 AM,3.0,-2.0,80,30.40,10.0,Calm,Calm,-,N/A,,Clear,0,2013-03-26 10:53:00
6:53 AM,3.0,-0.0,87,30.40,10.0,NNW,3.5,-,N/A,,Clear,330,2013-03-26 11:53:00
7:53 AM,3.0,-0.0,87,30.41,10.0,Calm,Calm,-,N/A,,Clear,0,2013-03-26 12:53:00
8:16 AM,5.0,3.2,92,30.35,1.8,Calm,Calm,-,N/A,,Partly Cloudy,0,2013-03-26 13:16:00
8:28 AM,6.8,3.2,85,30.35,3.0,Calm,Calm,-,N/A,,Clear,0,2013-03-26 13:28:00
8:53 AM,8.1,3.9,83,30.42,10.0,Calm,Calm,-,N/A,,Clear,0,2013-03-26 13:53:00
9:53 AM,10.0,5.0,80,30.42,10.0,Calm,Calm,-,N/A,,Clear,0,2013-03-26 14:53:00
10:53 AM,14.0,7.0,74,30.42,10.0,Calm,Calm,-,N/A,,Clear,0,2013-03-26 15:53:00
11:53 AM,19.0,10.0,68,30.41,10.0,Calm,Calm,-,N/A,,Clear,0,2013-03-26 16:53:00
12:53 PM,21.0,10.9,65,30.40,10.0,NNW,3.5,-,N/A,,Clear,340,2013-03-26 17:53:00
1:53 PM,25.0,12.9,60,30.39,10.0,NW,3.5,-,N/A,,Clear,320,2013-03-26 18:53:00
2:53 PM,25.0,14.0,63,30.38,10.0,NNW,4.6,-,N/A,,Clear,330,2013-03-26 19:53:00
3:53 PM,25.0,14.0,63,30.37,10.0,North,4.6,-,N/A,,Clear,350,2013-03-26 20:53:00
4:53 PM,26.1,14.0,60,30.35,10.0,NE,4.6,-,N/A,,Clear,50,2013-03-26 21:53:00
5:53 PM,24.1,14.0,65,30.35,10.0,ENE,8.1,-,N/A,,Clear,60,2013-03-26 22:53:00
6:53 PM,21.0,12.9,71,30.35,10.0,ENE,6.9,-,N/A,,Clear,60,2013-03-26 23:53:00
7:53 PM,19.0,10.9,71,30.35,10.0,NE,3.5,-,N/A,,Clear,50,2013-03-27 00:53:00
8:53 PM,19.0,10.9,71,30.35,10.0,Calm,Calm,-,N/A,,Clear,0,2013-03-27 01:53:00
9:53 PM,14.0,9.0,80,30.37,10.0,NNW,3.5,-,N/A,,Clear,340,2013-03-27 02:53:00
10:53 PM,10.9,7.0,84,30.37,10.0,Calm,Calm,-,N/A,,Clear,0,2013-03-27 03:53:00
11:53 PM,7.0,3.9,87,30.37,5.0,ENE,4.6,-,N/A,,Clear,60,2013-03-27 04:53:00